User: anonymous   Login
Location: Ljubljana
(46.0552°N, 14.5144°E)
Time: 12:44:22
(UTC+01:00)
Language:

ISS - Orbit

View from above orbital plane
View from above orbital plane
View from above satellite
View from above satellite

Ground track
Ground track

The orbit data is extracted from the following two-line orbital elements,

1 25544U 98067A   22333.20146808  .00014986  00000-0  26681-3 0  9996
2 25544  51.6439 239.1146 0007111 126.0103  38.6872 15.50328029370772
Epoch (UTC): 29 November 2022 04:50:06
Eccentricity: 0.0007111
inclination: 51.6439°
perigee height: 411 km
apogee height: 420 km
right ascension of ascending node: 239.1146°
argument of perigee: 126.0103°
revolutions per day: 15.50328029
mean anomaly at epoch: 38.6872°
orbit number at epoch: 37077

The dashed part of the orbit path shows where the satellite is in the earth's shadow,  

DLR